Year,Month,Day,Hour,Minute,Value (Times are PST for temperature in C)
2017,10,24,00,00,9.70
2017,10,24,00,01,9.70
2017,10,24,00,02,9.70
2017,10,24,00,03,9.70
2017,10,24,00,04,9.70
2017,10,24,00,05,9.70
2017,10,24,00,06,9.70
2017,10,24,00,07,9.70
2017,10,24,00,08,9.70
2017,10,24,00,09,9.70
2017,10,24,00,10,9.70
2017,10,24,00,11,9.70
2017,10,24,00,12,9.70
2017,10,24,00,13,9.70
2017,10,24,00,14,9.70
2017,10,24,00,15,9.70
2017,10,24,00,16,9.70
2017,10,24,00,17,9.70
2017,10,24,00,18,9.70
2017,10,24,00,19,9.70
2017,10,24,00,20,9.70
2017,10,24,00,21,9.70
2017,10,24,00,22,9.70
2017,10,24,00,23,9.70
2017,10,24,00,24,9.70
2017,10,24,00,25,9.70
2017,10,24,00,26,9.70
2017,10,24,00,27,9.70
2017,10,24,00,28,9.60
2017,10,24,00,29,9.60
2017,10,24,00,30,9.60
2017,10,24,00,31,9.60
2017,10,24,00,32,9.60
2017,10,24,00,33,9.60
2017,10,24,00,34,9.50
2017,10,24,00,35,9.50
2017,10,24,00,36,9.50
2017,10,24,00,37,9.50
2017,10,24,00,38,9.50
2017,10,24,00,39,9.40
2017,10,24,00,40,9.40
2017,10,24,00,41,9.40
2017,10,24,00,42,9.40
2017,10,24,00,43,9.40
2017,10,24,00,44,9.40
2017,10,24,00,45,9.40
2017,10,24,00,46,9.40
2017,10,24,00,47,9.40
2017,10,24,00,48,9.40
2017,10,24,00,49,9.40
2017,10,24,00,50,9.30
2017,10,24,00,51,9.30
2017,10,24,00,52,9.30
2017,10,24,00,53,9.30
2017,10,24,00,54,9.30
2017,10,24,00,55,9.30
2017,10,24,00,56,9.20
2017,10,24,00,57,9.20
2017,10,24,00,58,9.20
2017,10,24,00,59,9.20
2017,10,24,01,00,9.20
2017,10,24,01,01,9.20
2017,10,24,01,02,9.20
2017,10,24,01,03,9.20
2017,10,24,01,04,9.20
2017,10,24,01,05,9.20
2017,10,24,01,06,9.10
2017,10,24,01,07,9.10
2017,10,24,01,08,9.10
2017,10,24,01,09,9.10
2017,10,24,01,10,9.10
2017,10,24,01,11,9.10
2017,10,24,01,12,9.10
2017,10,24,01,13,9.10
2017,10,24,01,14,9.10
2017,10,24,01,15,9.10
2017,10,24,01,16,9.00
2017,10,24,01,17,9.00
2017,10,24,01,18,9.00
2017,10,24,01,19,9.00
2017,10,24,01,20,9.00
2017,10,24,01,21,9.00
2017,10,24,01,22,9.00
2017,10,24,01,23,9.00
2017,10,24,01,24,9.00
2017,10,24,01,25,9.00
2017,10,24,01,26,9.00
2017,10,24,01,27,9.00
2017,10,24,01,28,9.00
2017,10,24,01,29,9.00
2017,10,24,01,30,9.00
2017,10,24,01,31,8.90
2017,10,24,01,32,8.90
2017,10,24,01,33,8.90
2017,10,24,01,34,8.90
2017,10,24,01,35,8.90
2017,10,24,01,36,8.90
2017,10,24,01,37,8.90
2017,10,24,01,38,8.90
2017,10,24,01,39,8.90
2017,10,24,01,40,8.80
2017,10,24,01,41,8.80
2017,10,24,01,42,8.80
2017,10,24,01,43,8.80
2017,10,24,01,44,8.80
2017,10,24,01,45,8.80
2017,10,24,01,46,8.80
2017,10,24,01,47,8.80
2017,10,24,01,48,8.80
2017,10,24,01,49,8.70
2017,10,24,01,50,8.70
2017,10,24,01,51,8.70
2017,10,24,01,52,8.70
2017,10,24,01,53,8.70
2017,10,24,01,54,8.70
2017,10,24,01,55,8.70
2017,10,24,01,56,8.70
2017,10,24,01,57,8.70
2017,10,24,01,58,8.70
2017,10,24,01,59,8.70
2017,10,24,02,00,8.70
2017,10,24,02,01,8.60
2017,10,24,02,02,8.60
2017,10,24,02,03,8.60
2017,10,24,02,04,8.60
2017,10,24,02,05,8.60
2017,10,24,02,06,8.60
2017,10,24,02,07,8.60
2017,10,24,02,08,8.60
2017,10,24,02,09,8.60
2017,10,24,02,10,8.60
2017,10,24,02,11,8.60
2017,10,24,02,12,8.60
2017,10,24,02,13,8.50
2017,10,24,02,14,8.50
2017,10,24,02,15,8.50
2017,10,24,02,16,8.50
2017,10,24,02,17,8.50
2017,10,24,02,18,8.50
2017,10,24,02,19,8.50
2017,10,24,02,20,8.50
2017,10,24,02,21,8.50
2017,10,24,02,22,8.40
2017,10,24,02,23,8.40
2017,10,24,02,24,8.40
2017,10,24,02,25,8.40
2017,10,24,02,26,8.40
2017,10,24,02,27,8.40
2017,10,24,02,28,8.50
2017,10,24,02,29,8.50
2017,10,24,02,30,8.50
2017,10,24,02,31,8.50
2017,10,24,02,32,8.50
2017,10,24,02,33,8.50
2017,10,24,02,34,8.40
2017,10,24,02,35,8.40
2017,10,24,02,36,8.40
2017,10,24,02,37,8.40
2017,10,24,02,38,8.40
2017,10,24,02,39,8.40
2017,10,24,02,40,8.40
2017,10,24,02,41,8.40
2017,10,24,02,42,8.40
2017,10,24,02,43,8.40
2017,10,24,02,44,8.40
2017,10,24,02,45,8.40
2017,10,24,02,46,8.40
2017,10,24,02,47,8.40
2017,10,24,02,48,8.40
2017,10,24,02,49,8.30
2017,10,24,02,50,8.30
2017,10,24,02,51,8.30
2017,10,24,02,52,8.30
2017,10,24,02,53,8.30
2017,10,24,02,54,8.30
2017,10,24,02,55,8.30
2017,10,24,02,56,8.30
2017,10,24,02,57,8.20
2017,10,24,02,58,8.20
2017,10,24,02,59,8.20
2017,10,24,03,00,8.20
2017,10,24,03,01,8.20
2017,10,24,03,02,8.20
2017,10,24,03,03,8.20
2017,10,24,03,04,8.20
2017,10,24,03,05,8.10
2017,10,24,03,06,8.10
2017,10,24,03,07,8.10
2017,10,24,03,08,8.10
2017,10,24,03,09,8.10
2017,10,24,03,10,8.10
2017,10,24,03,11,8.10
2017,10,24,03,12,8.10
2017,10,24,03,13,8.10
2017,10,24,03,14,8.00
2017,10,24,03,15,8.00
2017,10,24,03,16,7.90
2017,10,24,03,17,7.90
2017,10,24,03,18,7.90
2017,10,24,03,19,7.90
2017,10,24,03,20,7.90
2017,10,24,03,21,7.90
2017,10,24,03,22,7.90
2017,10,24,03,23,7.80
2017,10,24,03,24,7.80
2017,10,24,03,25,7.80
2017,10,24,03,26,7.80
2017,10,24,03,27,7.80
2017,10,24,03,28,7.80
2017,10,24,03,29,7.80
2017,10,24,03,30,7.80
2017,10,24,03,31,7.80
2017,10,24,03,32,7.80
2017,10,24,03,33,7.80
2017,10,24,03,34,7.80
2017,10,24,03,35,7.80
2017,10,24,03,36,7.80
2017,10,24,03,37,7.80
2017,10,24,03,38,7.80
2017,10,24,03,39,7.80
2017,10,24,03,40,7.80
2017,10,24,03,41,7.80
2017,10,24,03,42,7.80
2017,10,24,03,43,7.80
2017,10,24,03,44,7.80
2017,10,24,03,45,7.80
2017,10,24,03,46,7.80
2017,10,24,03,47,7.80
2017,10,24,03,48,7.80
2017,10,24,03,49,7.80
2017,10,24,03,50,7.70
2017,10,24,03,51,7.70
2017,10,24,03,52,7.70
2017,10,24,03,53,7.70
2017,10,24,03,54,7.70
2017,10,24,03,55,7.70
2017,10,24,03,56,7.70
2017,10,24,03,57,7.70
2017,10,24,03,58,7.70
2017,10,24,03,59,7.60
2017,10,24,04,00,7.60
2017,10,24,04,01,7.60
2017,10,24,04,02,7.60
2017,10,24,04,03,7.60
2017,10,24,04,04,7.60
2017,10,24,04,05,7.60
2017,10,24,04,06,7.60
2017,10,24,04,07,7.60
2017,10,24,04,08,7.60
2017,10,24,04,09,7.50
2017,10,24,04,10,7.50
2017,10,24,04,11,7.50
2017,10,24,04,12,7.40
2017,10,24,04,13,7.40
2017,10,24,04,14,7.40
2017,10,24,04,15,7.30
2017,10,24,04,16,7.30
2017,10,24,04,17,7.30
2017,10,24,04,18,7.30
2017,10,24,04,19,7.30
2017,10,24,04,20,7.30
2017,10,24,04,21,7.20
2017,10,24,04,22,7.20
2017,10,24,04,23,7.20
2017,10,24,04,24,7.20
2017,10,24,04,25,7.10
2017,10,24,04,26,7.10
2017,10,24,04,27,7.10
2017,10,24,04,28,7.10
2017,10,24,04,29,7.00
2017,10,24,04,30,7.00
2017,10,24,04,31,7.00
2017,10,24,04,32,7.00
2017,10,24,04,33,7.00
2017,10,24,04,34,7.00
2017,10,24,04,35,7.00
2017,10,24,04,36,6.90
2017,10,24,04,37,6.90
2017,10,24,04,38,6.90
2017,10,24,04,39,6.90
2017,10,24,04,40,6.90
2017,10,24,04,41,6.80
2017,10,24,04,42,6.80
2017,10,24,04,43,6.80
2017,10,24,04,44,6.80
2017,10,24,04,45,6.80
2017,10,24,04,46,6.80
2017,10,24,04,47,6.80
2017,10,24,04,48,6.80
2017,10,24,04,49,6.80
2017,10,24,04,50,6.80
2017,10,24,04,51,6.70
2017,10,24,04,52,6.70
2017,10,24,04,53,6.70
2017,10,24,04,54,6.60
2017,10,24,04,55,6.60
2017,10,24,04,56,6.60
2017,10,24,04,57,6.60
2017,10,24,04,58,6.60
2017,10,24,04,59,6.60
2017,10,24,05,00,6.60
2017,10,24,05,01,6.60
2017,10,24,05,02,6.60
2017,10,24,05,03,6.60
2017,10,24,05,04,6.60
2017,10,24,05,05,6.60
2017,10,24,05,06,6.60
2017,10,24,05,07,6.70
2017,10,24,05,08,6.70
2017,10,24,05,09,6.70
2017,10,24,05,10,6.70
2017,10,24,05,11,6.70
2017,10,24,05,12,6.70
2017,10,24,05,13,6.80
2017,10,24,05,14,6.80
2017,10,24,05,15,6.80
2017,10,24,05,16,6.80
2017,10,24,05,17,6.80
2017,10,24,05,18,6.80
2017,10,24,05,19,6.80
2017,10,24,05,20,6.80
2017,10,24,05,21,6.80
2017,10,24,05,22,6.80
2017,10,24,05,23,6.80
2017,10,24,05,24,6.80
2017,10,24,05,25,6.80
2017,10,24,05,26,6.80
2017,10,24,05,27,6.80
2017,10,24,05,28,6.80
2017,10,24,05,29,6.80
2017,10,24,05,30,6.80
2017,10,24,05,31,6.80
2017,10,24,05,32,6.80
2017,10,24,05,33,6.80
2017,10,24,05,34,6.80
2017,10,24,05,35,6.70
2017,10,24,05,36,6.70
2017,10,24,05,37,6.70
2017,10,24,05,38,6.70
2017,10,24,05,39,6.70
2017,10,24,05,40,6.70
2017,10,24,05,41,6.70
2017,10,24,05,42,6.70
2017,10,24,05,43,6.70
2017,10,24,05,44,6.70
2017,10,24,05,45,6.70
2017,10,24,05,46,6.70
2017,10,24,05,47,6.60
2017,10,24,05,48,6.60
2017,10,24,05,49,6.60
2017,10,24,05,50,6.60
2017,10,24,05,51,6.60
2017,10,24,05,52,6.60
2017,10,24,05,53,6.60
2017,10,24,05,54,6.60
2017,10,24,05,55,6.60
2017,10,24,05,56,6.60
2017,10,24,05,57,6.60
2017,10,24,05,58,6.60
2017,10,24,05,59,6.60
2017,10,24,06,00,6.60
2017,10,24,06,01,6.60
2017,10,24,06,02,6.70
2017,10,24,06,03,6.70
2017,10,24,06,04,6.70
2017,10,24,06,05,6.70
2017,10,24,06,06,6.70
2017,10,24,06,07,6.70
2017,10,24,06,08,6.70
2017,10,24,06,09,6.70
2017,10,24,06,10,6.70
2017,10,24,06,11,6.70
2017,10,24,06,12,6.70
2017,10,24,06,13,6.70
2017,10,24,06,14,6.70
2017,10,24,06,15,6.70
2017,10,24,06,16,6.70
2017,10,24,06,17,6.70
2017,10,24,06,18,6.70
2017,10,24,06,19,6.70
2017,10,24,06,20,6.70
2017,10,24,06,21,6.70
2017,10,24,06,22,6.70
2017,10,24,06,23,6.70
2017,10,24,06,24,6.70
2017,10,24,06,25,6.70
2017,10,24,06,26,6.70
2017,10,24,06,27,6.70
2017,10,24,06,28,6.60
2017,10,24,06,29,6.60
2017,10,24,06,30,6.60
2017,10,24,06,31,6.60
2017,10,24,06,32,6.60
2017,10,24,06,33,6.60
2017,10,24,06,34,6.60
2017,10,24,06,35,6.60
2017,10,24,06,36,6.60
2017,10,24,06,37,6.60
2017,10,24,06,38,6.60
2017,10,24,06,39,6.60
2017,10,24,06,40,6.60
2017,10,24,06,41,6.60
2017,10,24,06,42,6.60
2017,10,24,06,43,6.60
2017,10,24,06,44,6.50
2017,10,24,06,45,6.40
2017,10,24,06,46,6.40
2017,10,24,06,47,6.40
2017,10,24,06,48,6.40
2017,10,24,06,49,6.50
2017,10,24,06,50,6.60
2017,10,24,06,51,6.60
2017,10,24,06,52,6.60
2017,10,24,06,53,6.60
2017,10,24,06,54,6.60
2017,10,24,06,55,6.50
2017,10,24,06,56,6.40
2017,10,24,06,57,6.40
2017,10,24,06,58,6.40
2017,10,24,06,59,6.40
2017,10,24,07,00,6.40
2017,10,24,07,01,6.40
2017,10,24,07,02,6.40
2017,10,24,07,03,6.40
2017,10,24,07,04,6.40
2017,10,24,07,05,6.40
2017,10,24,07,06,6.40
2017,10,24,07,07,6.40
2017,10,24,07,08,6.40
2017,10,24,07,09,6.40
2017,10,24,07,10,6.40
2017,10,24,07,11,6.40
2017,10,24,07,12,6.40
2017,10,24,07,13,6.40
2017,10,24,07,14,6.40
2017,10,24,07,15,6.40
2017,10,24,07,16,6.40
2017,10,24,07,17,6.40
2017,10,24,07,18,6.40
2017,10,24,07,19,6.50
2017,10,24,07,20,6.60
2017,10,24,07,21,6.60
2017,10,24,07,22,6.60
2017,10,24,07,23,6.60
2017,10,24,07,24,6.60
2017,10,24,07,25,6.60
2017,10,24,07,26,6.60
2017,10,24,07,27,6.60
2017,10,24,07,28,6.60
2017,10,24,07,29,6.60
2017,10,24,07,30,6.60
2017,10,24,07,31,6.60
2017,10,24,07,32,6.60
2017,10,24,07,33,6.60
2017,10,24,07,34,6.50
2017,10,24,07,35,6.40
2017,10,24,07,36,6.40
2017,10,24,07,37,6.40
2017,10,24,07,38,6.40
2017,10,24,07,39,6.40
2017,10,24,07,40,6.40
2017,10,24,07,41,6.40
2017,10,24,07,42,6.40
2017,10,24,07,43,6.40
2017,10,24,07,44,6.40
2017,10,24,07,45,6.40
2017,10,24,07,46,6.30
2017,10,24,07,47,6.30
2017,10,24,07,48,6.30
2017,10,24,07,49,6.30
2017,10,24,07,50,6.30
2017,10,24,07,51,6.30
2017,10,24,07,52,6.30
2017,10,24,07,53,6.30
2017,10,24,07,54,6.30
2017,10,24,07,55,6.30
2017,10,24,07,56,6.30
2017,10,24,07,57,6.30
2017,10,24,07,58,6.20
2017,10,24,07,59,6.20
2017,10,24,08,00,6.20
2017,10,24,08,01,6.20
2017,10,24,08,02,6.20
2017,10,24,08,03,6.20
2017,10,24,08,04,6.20
2017,10,24,08,05,6.30
2017,10,24,08,06,6.30
2017,10,24,08,07,6.30
2017,10,24,08,08,6.30
2017,10,24,08,09,6.30
2017,10,24,08,10,6.30
2017,10,24,08,11,6.30
2017,10,24,08,12,6.30
2017,10,24,08,13,6.30
2017,10,24,08,14,6.30
2017,10,24,08,15,6.20
2017,10,24,08,16,6.20
2017,10,24,08,17,6.20
2017,10,24,08,18,6.20
2017,10,24,08,19,6.20
2017,10,24,08,20,6.20
2017,10,24,08,21,6.20
2017,10,24,08,22,6.20
2017,10,24,08,23,6.20
2017,10,24,08,24,6.20
2017,10,24,08,25,6.20
2017,10,24,08,26,6.20
2017,10,24,08,27,6.20
2017,10,24,08,28,6.30
2017,10,24,08,29,6.30
2017,10,24,08,30,6.30
2017,10,24,08,31,6.30
2017,10,24,08,32,6.40
2017,10,24,08,33,6.40
2017,10,24,08,34,6.40
2017,10,24,08,35,6.40
2017,10,24,08,36,6.40
2017,10,24,08,37,6.40
2017,10,24,08,38,6.40
2017,10,24,08,39,6.40
2017,10,24,08,40,6.40
2017,10,24,08,41,6.40
2017,10,24,08,42,6.40
2017,10,24,08,43,6.40
2017,10,24,08,44,6.40
2017,10,24,08,45,6.40
2017,10,24,08,46,6.40
2017,10,24,08,47,6.40
2017,10,24,08,48,6.40
2017,10,24,08,49,6.40
2017,10,24,08,50,6.40
2017,10,24,08,51,6.40
2017,10,24,08,52,6.40
2017,10,24,08,53,6.40
2017,10,24,08,54,6.40
2017,10,24,08,55,6.50
2017,10,24,08,56,6.60
2017,10,24,08,57,6.60
2017,10,24,08,58,6.60
2017,10,24,08,59,6.60
2017,10,24,09,00,6.70
2017,10,24,09,01,6.80
2017,10,24,09,02,6.80
2017,10,24,09,03,6.80
2017,10,24,09,04,6.90
2017,10,24,09,05,6.90
2017,10,24,09,06,7.00
2017,10,24,09,07,7.00
2017,10,24,09,08,7.10
2017,10,24,09,09,7.20
2017,10,24,09,10,7.20
2017,10,24,09,11,7.30
2017,10,24,09,12,7.30
2017,10,24,09,13,7.40
2017,10,24,09,14,7.50
2017,10,24,09,15,7.60
2017,10,24,09,16,7.60
2017,10,24,09,17,7.70
2017,10,24,09,18,7.80
2017,10,24,09,19,7.80
2017,10,24,09,20,7.80
2017,10,24,09,21,7.90
2017,10,24,09,22,7.90
2017,10,24,09,23,8.00
2017,10,24,09,24,8.00
2017,10,24,09,25,8.10
2017,10,24,09,26,8.10
2017,10,24,09,27,8.20
2017,10,24,09,28,8.20
2017,10,24,09,29,8.30
2017,10,24,09,30,8.40
2017,10,24,09,31,8.40
2017,10,24,09,32,8.50
2017,10,24,09,33,8.60
2017,10,24,09,34,8.70
2017,10,24,09,35,8.70
2017,10,24,09,36,8.70
2017,10,24,09,37,8.80
2017,10,24,09,38,8.90
2017,10,24,09,39,8.90
2017,10,24,09,40,9.00
2017,10,24,09,41,9.10
2017,10,24,09,42,9.10
2017,10,24,09,43,9.20
2017,10,24,09,44,9.20
2017,10,24,09,45,9.30
2017,10,24,09,46,9.40
2017,10,24,09,47,9.40
2017,10,24,09,48,9.50
2017,10,24,09,49,9.60
2017,10,24,09,50,9.60
2017,10,24,09,51,9.70
2017,10,24,09,52,9.70
2017,10,24,09,53,9.70
2017,10,24,09,54,9.80
2017,10,24,09,55,9.80
2017,10,24,09,56,9.90
2017,10,24,09,57,9.90
2017,10,24,09,58,10.00
2017,10,24,09,59,10.10
2017,10,24,10,00,10.10
2017,10,24,10,01,10.10
2017,10,24,10,02,10.20
2017,10,24,10,03,10.30
2017,10,24,10,04,10.30
2017,10,24,10,05,10.40
2017,10,24,10,06,10.40
2017,10,24,10,07,10.50
2017,10,24,10,08,10.60
2017,10,24,10,09,10.60
2017,10,24,10,10,10.70
2017,10,24,10,11,10.80
2017,10,24,10,12,10.80
2017,10,24,10,13,10.90
2017,10,24,10,14,10.90
2017,10,24,10,15,10.90
2017,10,24,10,16,11.00
2017,10,24,10,17,11.10
2017,10,24,10,18,11.20
2017,10,24,10,19,11.20
2017,10,24,10,20,11.30
2017,10,24,10,21,11.40
2017,10,24,10,22,11.40
2017,10,24,10,23,11.40
2017,10,24,10,24,11.50
2017,10,24,10,25,11.60
2017,10,24,10,26,11.70
2017,10,24,10,27,11.70
2017,10,24,10,28,11.80
2017,10,24,10,29,11.80
2017,10,24,10,30,11.90
2017,10,24,10,31,12.00
2017,10,24,10,32,12.10
2017,10,24,10,33,12.10
2017,10,24,10,34,12.20
2017,10,24,10,35,12.30
2017,10,24,10,36,12.30
2017,10,24,10,37,12.30
2017,10,24,10,38,12.40
2017,10,24,10,39,12.50
2017,10,24,10,40,12.60
2017,10,24,10,41,12.70
2017,10,24,10,42,12.80
2017,10,24,10,43,12.80
2017,10,24,10,44,12.90
2017,10,24,10,45,12.90
2017,10,24,10,46,13.00
2017,10,24,10,47,13.00
2017,10,24,10,48,13.10
2017,10,24,10,49,13.10
2017,10,24,10,50,13.20
2017,10,24,10,51,13.30
2017,10,24,10,52,13.30
2017,10,24,10,53,13.30
2017,10,24,10,54,13.40
2017,10,24,10,55,13.40
2017,10,24,10,56,13.40
2017,10,24,10,57,13.50
2017,10,24,10,58,13.50
2017,10,24,10,59,13.60
2017,10,24,11,00,13.60
2017,10,24,11,01,13.70
2017,10,24,11,02,13.70
2017,10,24,11,03,13.70
2017,10,24,11,04,13.70
2017,10,24,11,05,13.70
2017,10,24,11,06,13.70
2017,10,24,11,07,13.70
2017,10,24,11,08,13.70
2017,10,24,11,09,13.70
2017,10,24,11,10,13.70
2017,10,24,11,11,13.70
2017,10,24,11,12,13.70
2017,10,24,11,13,13.70
2017,10,24,11,14,13.70
2017,10,24,11,15,13.70
2017,10,24,11,16,13.70
2017,10,24,11,17,13.70
2017,10,24,11,18,13.80
2017,10,24,11,19,13.80
2017,10,24,11,20,13.90
2017,10,24,11,21,13.90
2017,10,24,11,22,13.90
2017,10,24,11,23,13.90
2017,10,24,11,24,13.90
2017,10,24,11,25,13.90
2017,10,24,11,26,14.00
2017,10,24,11,27,14.00
2017,10,24,11,28,14.00
2017,10,24,11,29,14.10
2017,10,24,11,30,14.10
2017,10,24,11,31,14.20
2017,10,24,11,32,14.20
2017,10,24,11,33,14.10
2017,10,24,11,34,14.10
2017,10,24,11,35,14.10
2017,10,24,11,36,14.00
2017,10,24,11,37,14.00
2017,10,24,11,38,13.90
2017,10,24,11,39,13.90
2017,10,24,11,40,13.90
2017,10,24,11,41,13.80
2017,10,24,11,42,13.80
2017,10,24,11,43,13.80
2017,10,24,11,44,13.80
2017,10,24,11,45,13.80
2017,10,24,11,46,13.80
2017,10,24,11,47,13.80
2017,10,24,11,48,13.80
2017,10,24,11,49,13.80
2017,10,24,11,50,13.90
2017,10,24,11,51,13.90
2017,10,24,11,52,14.00
2017,10,24,11,53,14.00
2017,10,24,11,54,14.00
2017,10,24,11,55,14.10
2017,10,24,11,56,14.10
2017,10,24,11,57,14.10
2017,10,24,11,58,14.20
2017,10,24,11,59,14.20
2017,10,24,12,00,14.20
2017,10,24,12,01,14.30
2017,10,24,12,02,14.40
2017,10,24,12,03,14.40
2017,10,24,12,04,14.50
2017,10,24,12,05,14.50
2017,10,24,12,06,14.50
2017,10,24,12,07,14.50
2017,10,24,12,08,14.50
2017,10,24,12,09,14.50
2017,10,24,12,10,14.50
2017,10,24,12,11,14.50
2017,10,24,12,12,14.50
2017,10,24,12,13,14.50
2017,10,24,12,14,14.60
2017,10,24,12,15,14.60
2017,10,24,12,16,14.60
2017,10,24,12,17,14.60
2017,10,24,12,18,14.60
2017,10,24,12,19,14.70
2017,10,24,12,20,14.70
2017,10,24,12,21,14.70
2017,10,24,12,22,14.80
2017,10,24,12,23,14.80
2017,10,24,12,24,14.80
2017,10,24,12,25,14.80
2017,10,24,12,26,14.80
2017,10,24,12,27,14.80
2017,10,24,12,28,14.90
2017,10,24,12,29,14.90
2017,10,24,12,30,15.00
2017,10,24,12,31,15.00
2017,10,24,12,32,15.10
2017,10,24,12,33,15.20
2017,10,24,12,34,15.30
2017,10,24,12,35,15.30
2017,10,24,12,36,15.40
2017,10,24,12,37,15.50
2017,10,24,12,38,15.50
2017,10,24,12,39,15.40
2017,10,24,12,40,15.40
2017,10,24,12,41,15.40
2017,10,24,12,42,15.50
2017,10,24,12,43,15.50
2017,10,24,12,44,15.60
2017,10,24,12,45,15.70
2017,10,24,12,46,15.70
2017,10,24,12,47,15.70
2017,10,24,12,48,15.80
2017,10,24,12,49,15.80
2017,10,24,12,50,15.80
2017,10,24,12,51,15.90
2017,10,24,12,52,15.90
2017,10,24,12,53,16.10
2017,10,24,12,54,16.10
2017,10,24,12,55,16.00
2017,10,24,12,56,15.90
2017,10,24,12,57,15.90
2017,10,24,12,58,15.90
2017,10,24,12,59,15.90
2017,10,24,13,00,15.90
2017,10,24,13,01,15.90
2017,10,24,13,02,15.90
2017,10,24,13,03,15.90
2017,10,24,13,04,15.90
2017,10,24,13,05,15.90
2017,10,24,13,06,15.90
2017,10,24,13,07,15.80
2017,10,24,13,08,15.80
2017,10,24,13,09,15.80
2017,10,24,13,10,15.80
2017,10,24,13,11,15.80
2017,10,24,13,12,15.80
2017,10,24,13,13,15.80
2017,10,24,13,14,15.80
2017,10,24,13,15,15.90
2017,10,24,13,16,15.90
2017,10,24,13,17,15.90
2017,10,24,13,18,15.90
2017,10,24,13,19,16.00
2017,10,24,13,20,16.10
2017,10,24,13,21,16.10
2017,10,24,13,22,16.10
2017,10,24,13,23,16.10
2017,10,24,13,24,16.10
2017,10,24,13,25,16.10
2017,10,24,13,26,16.10
2017,10,24,13,27,16.10
2017,10,24,13,28,16.10
2017,10,24,13,29,16.20
2017,10,24,13,30,16.20
2017,10,24,13,31,16.20
2017,10,24,13,32,16.20
2017,10,24,13,33,16.20
2017,10,24,13,34,16.20
2017,10,24,13,35,16.20
2017,10,24,13,36,16.20
2017,10,24,13,37,16.20
2017,10,24,13,38,16.20
2017,10,24,13,39,16.20
2017,10,24,13,40,16.30
2017,10,24,13,41,16.30
2017,10,24,13,42,16.40
2017,10,24,13,43,16.40
2017,10,24,13,44,16.40
2017,10,24,13,45,16.40
2017,10,24,13,46,16.40
2017,10,24,13,47,16.40
2017,10,24,13,48,16.40
2017,10,24,13,49,16.50
2017,10,24,13,50,16.60
2017,10,24,13,51,16.60
2017,10,24,13,52,16.60
2017,10,24,13,53,16.70
2017,10,24,13,54,16.70
2017,10,24,13,55,16.70
2017,10,24,13,56,16.70
2017,10,24,13,57,16.80
2017,10,24,13,58,16.90
2017,10,24,13,59,16.90
2017,10,24,14,00,16.80
2017,10,24,14,01,16.70
2017,10,24,14,02,16.70
2017,10,24,14,03,16.70
2017,10,24,14,04,16.70
2017,10,24,14,05,16.70
2017,10,24,14,06,16.70
2017,10,24,14,07,16.80
2017,10,24,14,08,16.80
2017,10,24,14,09,16.80
2017,10,24,14,10,16.90
2017,10,24,14,11,16.90
2017,10,24,14,12,16.90
2017,10,24,14,13,16.90
2017,10,24,14,14,16.90
2017,10,24,14,15,16.80
2017,10,24,14,16,16.80
2017,10,24,14,17,16.80
2017,10,24,14,18,16.80
2017,10,24,14,19,16.70
2017,10,24,14,20,16.70
2017,10,24,14,21,16.80
2017,10,24,14,22,16.90
2017,10,24,14,23,16.90
2017,10,24,14,24,16.90
2017,10,24,14,25,16.90
2017,10,24,14,26,16.90
2017,10,24,14,27,16.90
2017,10,24,14,28,17.00
2017,10,24,14,29,17.00
2017,10,24,14,30,17.00
2017,10,24,14,31,17.00
2017,10,24,14,32,17.00
2017,10,24,14,33,17.00
2017,10,24,14,34,17.10
2017,10,24,14,35,17.10
2017,10,24,14,36,17.20
2017,10,24,14,37,17.20
2017,10,24,14,38,17.10
2017,10,24,14,39,17.10
2017,10,24,14,40,17.10
2017,10,24,14,41,17.00
2017,10,24,14,42,17.00
2017,10,24,14,43,17.00
2017,10,24,14,44,17.00
2017,10,24,14,45,17.00
2017,10,24,14,46,17.00
2017,10,24,14,47,17.00
2017,10,24,14,48,17.00
2017,10,24,14,49,16.90
2017,10,24,14,50,16.90
2017,10,24,14,51,16.90
2017,10,24,14,52,16.90
2017,10,24,14,53,16.90
2017,10,24,14,54,16.80
2017,10,24,14,55,16.80
2017,10,24,14,56,16.70
2017,10,24,14,57,16.70
2017,10,24,14,58,16.70
2017,10,24,14,59,16.70
2017,10,24,15,00,16.70
2017,10,24,15,01,16.70
2017,10,24,15,02,16.70
2017,10,24,15,03,16.70
2017,10,24,15,04,16.70
2017,10,24,15,05,16.70
2017,10,24,15,06,16.80
2017,10,24,15,07,16.80
2017,10,24,15,08,16.80
2017,10,24,15,09,16.70
2017,10,24,15,10,16.70
2017,10,24,15,11,16.70
2017,10,24,15,12,16.60
2017,10,24,15,13,16.60
2017,10,24,15,14,16.50
2017,10,24,15,15,16.40
2017,10,24,15,16,16.40
2017,10,24,15,17,16.40
2017,10,24,15,18,16.40
2017,10,24,15,19,16.40
2017,10,24,15,20,16.40
2017,10,24,15,21,16.40
2017,10,24,15,22,16.40
2017,10,24,15,23,16.30
2017,10,24,15,24,16.20
2017,10,24,15,25,16.20
2017,10,24,15,26,16.10
2017,10,24,15,27,16.10
2017,10,24,15,28,16.00
2017,10,24,15,29,15.90
2017,10,24,15,30,15.80
2017,10,24,15,31,15.80
2017,10,24,15,32,15.80
2017,10,24,15,33,15.70
2017,10,24,15,34,15.70
2017,10,24,15,35,15.70
2017,10,24,15,36,15.70
2017,10,24,15,37,15.70
2017,10,24,15,38,15.70
2017,10,24,15,39,15.70
2017,10,24,15,40,15.70
2017,10,24,15,41,15.80
2017,10,24,15,42,15.80
2017,10,24,15,43,15.80
2017,10,24,15,44,15.80
2017,10,24,15,45,15.70
2017,10,24,15,46,15.70
2017,10,24,15,47,15.70
2017,10,24,15,48,15.70
2017,10,24,15,49,15.70
2017,10,24,15,50,15.70
2017,10,24,15,51,15.70
2017,10,24,15,52,15.70
2017,10,24,15,53,15.70
2017,10,24,15,54,15.70
2017,10,24,15,55,15.80
2017,10,24,15,56,15.80
2017,10,24,15,57,15.80
2017,10,24,15,58,15.70
2017,10,24,15,59,15.70
2017,10,24,16,00,15.80
2017,10,24,16,01,15.80
2017,10,24,16,02,15.70
2017,10,24,16,03,15.70
2017,10,24,16,04,15.60
2017,10,24,16,05,15.60
2017,10,24,16,06,15.60
2017,10,24,16,07,15.50
2017,10,24,16,08,15.50
2017,10,24,16,09,15.40
2017,10,24,16,10,15.40
2017,10,24,16,11,15.30
2017,10,24,16,12,15.30
2017,10,24,16,13,15.30
2017,10,24,16,14,15.30
2017,10,24,16,15,15.30
2017,10,24,16,16,15.30
2017,10,24,16,17,15.20
2017,10,24,16,18,15.20
2017,10,24,16,19,15.20
2017,10,24,16,20,15.20
2017,10,24,16,21,15.20
2017,10,24,16,22,15.20
2017,10,24,16,23,15.20
2017,10,24,16,24,15.20
2017,10,24,16,25,15.10
2017,10,24,16,26,15.10
2017,10,24,16,27,15.10
2017,10,24,16,28,15.10
2017,10,24,16,29,15.00
2017,10,24,16,30,15.00
2017,10,24,16,31,15.00
2017,10,24,16,32,15.00
2017,10,24,16,33,15.00
2017,10,24,16,34,14.90
2017,10,24,16,35,14.90
2017,10,24,16,36,14.90
2017,10,24,16,37,14.90
2017,10,24,16,38,14.90
2017,10,24,16,39,14.90
2017,10,24,16,40,14.80
2017,10,24,16,41,14.80
2017,10,24,16,42,14.80
2017,10,24,16,43,14.80
2017,10,24,16,44,14.80
2017,10,24,16,45,14.80
2017,10,24,16,46,14.80
2017,10,24,16,47,14.80
2017,10,24,16,48,14.70
2017,10,24,16,49,14.70
2017,10,24,16,50,14.70
2017,10,24,16,51,14.70
2017,10,24,16,52,14.70
2017,10,24,16,53,14.60
2017,10,24,16,54,14.60
2017,10,24,16,55,14.60
2017,10,24,16,56,14.60
2017,10,24,16,57,14.60
2017,10,24,16,58,14.60
2017,10,24,16,59,14.60
2017,10,24,17,00,14.60
2017,10,24,17,01,14.50
2017,10,24,17,02,14.50
2017,10,24,17,03,14.50
2017,10,24,17,04,14.50
2017,10,24,17,05,14.50
2017,10,24,17,06,14.40
2017,10,24,17,07,14.40
2017,10,24,17,08,14.40
2017,10,24,17,09,14.40
2017,10,24,17,10,14.40
2017,10,24,17,11,14.30
2017,10,24,17,12,14.20
2017,10,24,17,13,14.20
2017,10,24,17,14,14.20
2017,10,24,17,15,14.20
2017,10,24,17,16,14.20
2017,10,24,17,17,14.20
2017,10,24,17,18,14.20
2017,10,24,17,19,14.20
2017,10,24,17,20,14.20
2017,10,24,17,21,14.20
2017,10,24,17,22,14.20
2017,10,24,17,23,14.10
2017,10,24,17,24,14.10
2017,10,24,17,25,14.10
2017,10,24,17,26,14.00
2017,10,24,17,27,14.00
2017,10,24,17,28,14.00
2017,10,24,17,29,13.90
2017,10,24,17,30,13.90
2017,10,24,17,31,13.90
2017,10,24,17,32,13.80
2017,10,24,17,33,13.80
2017,10,24,17,34,13.70
2017,10,24,17,35,13.70
2017,10,24,17,36,13.70
2017,10,24,17,37,13.60
2017,10,24,17,38,13.60
2017,10,24,17,39,13.60
2017,10,24,17,40,13.50
2017,10,24,17,41,13.50
2017,10,24,17,42,13.40
2017,10,24,17,43,13.40
2017,10,24,17,44,13.30
2017,10,24,17,45,13.30